Temp
-8 -8 -8 -7 -7 -8 -8 -7 -6 -7 -7 -6 -7 -7 -7 -6 -6 -6 -6 -6 -6 -6 -6 -6 -6 -6 -6 -6 -5 -5 -6 -6 -6 -6 -6 -6 -5 -5 -5 -6 -6 -6 -6 -6
-8 -7 -8 -8 -8 -8 -8 -7 -7 -7 -7 -6 -7 -6 -7 -6 -6 -6 -6 -6 -6 -6 -6 -6 -6 -6 -6 -6 -6 -5 -5 -6 -6 -6 -6 -6 -6 -5 -5 -5 -6 -6 -6 -7
-8 -8 -8 -8 -8 -8 -7 -7 -6 -7 -6 -6 -6 -6 -7 -6 -6 -6 -6 -6 -6 -6 -6 -6 -6 -6 -5 -6 -6 -6 -5 -6 -6 -6 -6 -5 -5 -5 -3 -6 -6 -6 -7 -7
-8 -8 -7 -7 -7 -8 -7 -7 -7 -7 -7 -6 -6 -6 -6 -6 -6 -6 -6 -6 -6 -6 -6 -6 -6 -6 -5 -5 -6 -6 -6 -5 -5 -5 -6 -6 -6 -6 -6 -6 -6 -6 -7 -7
-8 -8 -7 -7 -8 -7 -7 -7 -6 -7 -7 -6 -5 -6 -7 -7 -7 -6 -6 -6 -6 -5 -6 -6 -6 -6 -6 -6 -5 -5 -5 -5 -5 -5 -5 -5 -6 -6 -6 -6 -6 -6 -6 -6
-7 -7 -7 -7 -6 -7 -6 -6 -6 -6 -7 -6 -5 -5 -6 -7 -7 -6 -6 -6 -6 -6 -6 -6 -6 -6 -6 -6 -6 -6 -5 -5 -5 -6 -6 -6 -6 -6 -6 -6 -6 -6 -6 -6
-8 -8 -8 -7 -7 -8 -7 -7 -6 -6 -5 -5 -5 -5 -5 -7 -7 -7 -6 -6 -6 -6 -6 -6 -6 -6 -6 -6 -6 -6 -6 -5 -5 -6 -6 -6 -6 -6 -6 -6 -6 -6 -6 -6
-7 -7 -8 -8 -8 -8 -8 -7 -6 -6 -5 -5 -5 -6 -6 -6 -7 -6 -6 -6 -6 -6 -6 -6 -6 -6 -6 -6 -6 -6 -6 -6 -6 -6 -6 -6 -6 -6 -6 -6 -6 -6 -6 -7
-7 -7 -8 -7 -7 -7 -8 -8 -7 -7 -6 -6 -5 -5 -6 -7 -8 -6 -6 -6 -6 -6 -6 -6 -6 -6 -6 -6 -6 -6 -6 -6 -6 -6 -6 -7 -6 -6 -6 -6 -6 -6 -6 -6
-8 -8 -8 -9 -7 -8 -7 -8 -8 -7 -7 -6 -5 -6 -6 -7 -7 -7 -6 -6 -6 -6 -6 -7 -6 -6 -6 -6 -7 -7 -7 -6 -6 -7 -7 -7 -7 -7 -7 -6 -6 -6 -6 -6
-9 -9 -8 -8 -8 -8 -8 -8 -8 -7 -7 -6 -6 -6 -7 -7 -7 -7 -7 -7 -7 -7 -7 -7 -7 -7 -6 -7 -7 -7 -7 -7 -7 -7 -7 -7 -7 -7 -7 -7 -6 -7 -7 -7
-9 -7 -9 -8 -8 -7 -6 -6 -7 -8 -7 -7 -7 -7 -7 -7 -7 -8 -8 -8 -7 -7 -7 -7 -7 -7 -7 -7 -7 -7 -7 -7 -7 -7 -7 -7 -7 -7 -7 -7 -7 -7 -7 -7
-7 -8 -9 -8 -8 -7 -7 -8 -7 -8 -8 -8 -7 -7 -8 -8 -8 -8 -8 -8 -8 -8 -7 -8 -8 -8 -7 -7 -7 -7 -7 -7 -7 -7 -7 -7 -8 -8 -8 -7 -7 -7 -7 -7
-7 -7 -7 -9 -8 -9 -7 -7 -7 -8 -8 -8 -7 -8 -8 -9 -8 -8 -8 -8 -8 -8 -7 -7 -8 -8 -7 -7 -7 -7 -8 -7 -7 -7 -7 -8 -8 -8 -8 -8 -8 -8 -8 -8
-7 -7 -7 -7 -7 -7 -7 -7 -7 -7 -7 -8 -8 -8 -8 -9 -8 -8 -8 -8 -8 -8 -8 -8 -8 -8 -7 -7 -7 -7 -8 -8 -8 -8 -8 -8 -8 -8 -8 -8 -8 -8 -8 -8
-7 -7 -7 -7 -7 -7 -7 -6 -7 -7 -7 -7 -7 -7 -9 -9 -7 -7 -8 -8 -8 -8 -9 -9 -9 -8 -8 -8 -7 -8 -8 -7 -7 -9 -9 -8 -8 -8 -8 -8 -8 -8 -8 -8
-7 -7 -7 -7 -7 -7 -7 -7 -7 -7 -7 -7 -7 -8 -9 -7 -8 -7 -7 -8 -8 -9 -8 -9 -9 -9 -9 -8 -8 -9 -8 -8 -7 -10 -9 -9 -9 -8 -8 -8 -8 -8 -8 -8
-7 -7 -7 -6 -7 -7 -8 -7 -7 -7 -7 -7 -7 -7 -7 -7 -8 -8 -7 -7 -8 -8 -8 -8 -9 -9 -9 -8 -8 -8 -8 -8 -8 -8 -8 -8 -8 -7 -9 -8 -8 -8 -8 -8
-7 -7 -7 -7 -7 -7 -8 -8 -6 -7 -7 -8 -7 -8 -8 -7 -7 -8 -8 -8 -8 -8 -8 -8 -8 -8 -8 -8 -8 -8 -9 -9 -9 -9 -8 -8 -9 -9 -8 -9 -8 -8 -8 -9
-7 -7 -7 -7 -7 -8 -9 -7 -7 -7 -8 -7 -8 -8 -8 -7 -8 -10 -7 -7 -8 -8 -8 -8 -9 -9 -9 -9 -9 -9 -9 -9 -9 -9 -9 -9 -9 -10 -9 -9 -9 -9 -9 -9
-7 -7 -7 -7 -7 -7 -7 -7 -7 -8 -8 -7 -7 -8 -8 -8 -9 -8 -6 -8 -8 -9 -9 -9 -9 -9 -9 -9 -9 -9 -9 -9 -9 -10 -10 -10 -10 -10 -10 -9 -9 -9 -9 -9
-7 -7 -7 -7 -7 -8 -6 -7 -7 -8 -8 -8 -8 -8 -8 -8 -8 -9 -8 -9 -9 -9 -10 -10 -10 -10 -10 -9 -9 -9 -9 -10 -9 -10 -10 -10 -10 -9 -9 -10 -9 -9 -9 -9
-7 -7 -7 -7 -9 -7 -7 -7 -7 -7 -8 -8 -8 -8 -9 -9 -10 -10 -10 -10 -9 -9 -10 -10 -11 -11 -11 -10 -10 -10 -10 -10 -10 -10 -10 -10 -10 -10 -9 -9 -9 -9 -9 -9
-7 -7 -7 -8 -7 -8 -7 -7 -7 -7 -7 -8 -8 -8 -9 -9 -9 -9 -10 -10 -10 -10 -10 -11 -11 -12 -12 -11 -11 -11 -10 -10 -10 -10 -10 -9 -9 -9 -9 -9 -9 -9 -9 -9
-8 -7 -7 -8 -8 -7 -7 -7 -7 -8 -8 -8 -8 -9 -9 -9 -9 -10 -10 -10 -10 -11 -11 -11 -11 -11 -12 -12 -12 -12 -11 -11 -11 -10 -10 -10 -10 -10 -9 -9 -9 -9 -9 -9
-7 -7 -8 -8 -7 -7 -7 -8 -8 -8 -8 -9 -9 -9 -9 -10 -10 -10 -11 -11 -11 -11 -12 -11 -11 -12 -12 -12 -11 -12 -12 -11 -11 -11 -11 -11 -10 -10 -10 -10 -9 -8 -8 -9
Height
5916 5918 5924 5930 5926 5924 5924 5928 5932 5927 5925 5925 5925 5925 5924 5920 5918 5916 5915 5915 5913 5913 5912 5911 5910 5909 5909 5909 5910 5911 5911 5911 5910 5910 5911 5912 5913 5915 5918 5919 5920 5921 5922 5923
5916 5917 5920 5923 5919 5920 5923 5927 5929 5916 5925 5926 5927 5925 5925 5920 5919 5918 5918 5918 5917 5915 5914 5912 5911 5910 5909 5909 5908 5910 5910 5910 5910 5909 5910 5911 5912 5915 5918 5920 5920 5920 5920 5920
5914 5918 5916 5914 5915 5918 5923 5925 5928 5926 5923 5926 5926 5926 5922 5921 5920 5919 5918 5918 5917 5917 5915 5914 5913 5910 5909 5908 5908 5908 5909 5909 5908 5909 5909 5909 5911 5915 5890 5919 5917 5917 5917 5917
5911 5913 5912 5913 5915 5917 5921 5924 5923 5922 5924 5928 5925 5923 5914 5914 5920 5918 5918 5917 5917 5917 5916 5915 5914 5911 5910 5909 5908 5907 5908 5908 5907 5907 5908 5909 5910 5912 5915 5916 5914 5913 5913 5913
5914 5909 5911 5912 5915 5912 5914 5913 5915 5917 5920 5925 5928 5924 5916 5914 5918 5917 5916 5916 5916 5917 5916 5915 5913 5912 5911 5911 5910 5909 5908 5907 5908 5909 5910 5910 5911 5913 5914 5915 5913 5912 5911 5911
5908 5907 5908 5909 5910 5911 5912 5913 5915 5916 5920 5923 5926 5927 5925 5910 5915 5916 5915 5914 5915 5915 5915 5914 5913 5912 5911 5911 5910 5910 5909 5909 5909 5909 5910 5911 5912 5912 5913 5912 5912 5911 5911 5909
5910 5907 5906 5906 5909 5913 5912 5916 5920 5921 5921 5922 5924 5923 5925 5914 5913 5910 5912 5912 5912 5914 5914 5913 5912 5911 5910 5910 5909 5909 5910 5910 5910 5910 5911 5912 5912 5912 5912 5912 5912 5912 5911 5910
5915 5912 5907 5905 5907 5908 5911 5914 5916 5918 5919 5919 5919 5918 5915 5912 5907 5906 5906 5908 5909 5911 5911 5911 5911 5911 5910 5909 5908 5907 5908 5908 5909 5909 5910 5911 5912 5912 5911 5911 5912 5912 5911 5912
5913 5913 5905 5904 5903 5905 5909 5911 5912 5913 5914 5916 5916 5916 5914 5907 5903 5903 5902 5902 5905 5907 5908 5909 5909 5909 5909 5908 5907 5906 5907 5907 5907 5908 5909 5910 5911 5911 5911 5911 5911 5911 5912 5913
5909 5909 5907 5904 5901 5902 5902 5904 5906 5911 5912 5912 5913 5914 5914 5901 5901 5900 5897 5897 5899 5901 5903 5905 5907 5907 5907 5906 5906 5905 5905 5905 5906 5907 5908 5909 5910 5910 5910 5910 5910 5911 5911 5912
5902 5906 5909 5904 5907 5904 5903 5902 5907 5907 5909 5910 5910 5907 5903 5901 5898 5897 5894 5894 5895 5897 5899 5900 5902 5903 5903 5903 5904 5904 5904 5903 5904 5905 5906 5907 5908 5908 5908 5908 5909 5910 5911 5912
5898 5898 5900 5903 5902 5898 5897 5897 5898 5902 5906 5907 5907 5905 5896 5897 5894 5895 5892 5891 5892 5893 5895 5895 5895 5897 5898 5899 5900 5901 5901 5901 5901 5902 5903 5904 5905 5905 5905 5906 5906 5906 5908 5910
5895 5895 5897 5901 5903 5893 5894 5895 5895 5895 5899 5900 5902 5900 5894 5892 5890 5890 5889 5889 5889 5889 5888 5890 5886 5891 5892 5895 5896 5897 5898 5898 5899 5900 5900 5900 5901 5902 5902 5903 5904 5904 5904 5906
5892 5891 5892 5897 5897 5894 5890 5891 5890 5891 5894 5897 5900 5897 5893 5887 5884 5886 5885 5885 5884 5884 5883 5882 5880 5887 5887 5890 5893 5893 5894 5895 5895 5897 5897 5896 5897 5897 5898 5900 5902 5902 5902 5903
5887 5887 5887 5887 5887 5886 5885 5886 5886 5885 5886 5887 5890 5889 5890 5886 5878 5879 5880 5880 5880 5877 5875 5877 5879 5882 5883 5885 5886 5887 5887 5889 5889 5892 5892 5890 5890 5891 5892 5893 5896 5898 5899 5900
5883 5882 5881 5881 5881 5880 5879 5881 5880 5881 5881 5880 5880 5880 5880 5878 5872 5874 5874 5875 5875 5874 5873 5873 5876 5878 5878 5879 5881 5881 5880 5879 5863 5880 5884 5888 5887 5887 5888 5888 5889 5892 5895 5895
5877 5877 5876 5877 5875 5874 5876 5875 5875 5874 5874 5874 5874 5875 5872 5871 5869 5868 5867 5868 5869 5869 5869 5868 5869 5871 5873 5874 5874 5874 5874 5873 5865 5869 5871 5880 5874 5878 5880 5883 5884 5886 5888 5889
5872 5871 5871 5871 5870 5871 5870 5867 5868 5868 5868 5868 5867 5867 5866 5864 5864 5861 5861 5861 5862 5863 5863 5864 5864 5864 5866 5867 5865 5865 5864 5861 5863 5866 5865 5867 5861 5849 5868 5873 5876 5878 5880 5882
5867 5867 5866 5865 5865 5866 5865 5862 5862 5862 5863 5861 5861 5860 5858 5858 5858 5855 5855 5855 5855 5854 5854 5855 5856 5856 5856 5858 5859 5857 5855 5856 5855 5855 5855 5854 5853 5860 5862 5865 5868 5869 5871 5871
5861 5861 5862 5861 5860 5861 5858 5854 5857 5858 5857 5853 5855 5854 5852 5852 5854 5848 5846 5846 5846 5846 5846 5845 5843 5846 5846 5846 5846 5846 5845 5845 5847 5850 5851 5853 5851 5851 5855 5855 5857 5859 5860 5861
5855 5855 5855 5855 5854 5854 5847 5850 5852 5851 5849 5846 5847 5846 5846 5845 5845 5840 5833 5838 5838 5837 5837 5836 5836 5833 5833 5835 5833 5833 5833 5833 5831 5833 5836 5838 5839 5841 5842 5845 5847 5847 5847 5848
5847 5846 5848 5846 5847 5846 5841 5844 5843 5839 5838 5837 5837 5835 5836 5836 5835 5832 5829 5829 5827 5827 5825 5824 5825 5823 5820 5822 5821 5821 5822 5822 5821 5821 5822 5825 5828 5830 5832 5834 5834 5833 5832 5833
5841 5839 5839 5841 5838 5835 5836 5833 5831 5831 5830 5828 5827 5826 5823 5822 5820 5819 5818 5817 5815 5814 5813 5812 5811 5810 5810 5807 5811 5808 5807 5809 5810 5810 5812 5812 5813 5815 5816 5818 5819 5819 5818 5819
5829 5830 5830 5830 5833 5824 5823 5824 5822 5822 5821 5819 5816 5814 5811 5808 5808 5805 5803 5802 5800 5799 5800 5798 5796 5795 5794 5791 5796 5796 5793 5794 5793 5793 5795 5797 5799 5800 5802 5804 5805 5806 5807 5807
5822 5819 5819 5820 5820 5817 5816 5814 5812 5808 5808 5805 5802 5799 5797 5795 5792 5791 5787 5785 5784 5783 5783 5782 5782 5781 5780 5776 5777 5779 5777 5780 5780 5780 5781 5782 5783 5783 5784 5787 5790 5792 5794 5794
5813 5810 5808 5807 5808 5807 5808 5804 5800 5796 5796 5791 5787 5785 5782 5778 5776 5773 5771 5770 5767 5765 5763 5761 5763 5764 5763 5759 5757 5761 5760 5762 5764 5765 5767 5768 5769 5770 5770 5770 5772 5775 5778 5780
Wind_Speed
3 13 10 6 15 14 12 5 5 7 10 5 6 3 9 9 8 12 14 15 13 13 12 10 5 4 2 1 2 4 4 5 4 5 5 5 6 7 9 9 10 10 12 13
8 11 12 14 25 24 15 10 10 1 11 7 7 7 3 14 8 10 13 13 14 12 12 10 9 8 5 8 9 7 6 6 4 4 4 5 5 6 6 9 11 13 15 17
9 10 17 24 16 14 14 13 11 17 7 6 6 8 12 14 11 12 13 15 8 12 15 12 12 9 8 6 6 9 9 8 7 7 6 8 10 8 7 14 14 15 18 20
9 12 15 12 12 13 13 13 16 17 6 3 13 14 18 4 12 14 13 13 11 8 11 16 14 11 9 6 3 2 5 5 4 2 1 1 5 9 9 9 10 12 11 18
5 12 11 11 9 14 11 19 18 14 12 10 11 8 16 3 10 17 18 13 16 12 9 13 17 12 10 8 5 3 4 5 5 5 4 5 6 5 3 4 6 7 8 10
8 12 9 10 9 10 12 11 11 10 11 14 12 13 7 16 19 21 20 19 15 16 8 9 16 14 10 9 7 7 4 5 6 3 4 4 3 1 4 5 7 9 8 7
10 9 8 8 3 8 3 4 5 10 10 9 9 18 14 16 16 27 23 23 20 15 10 8 13 16 10 9 8 6 7 4 6 4 2 1 2 4 5 8 8 8 9 2
3 14 4 7 6 14 5 5 7 8 11 13 12 15 15 22 18 26 22 26 27 21 17 11 11 13 11 8 9 9 6 7 6 5 3 2 3 5 7 7 7 6 6 5
3 9 20 13 11 6 6 1 11 11 11 13 16 17 16 18 15 20 18 21 29 27 19 10 10 10 12 15 11 8 9 7 9 9 7 6 7 7 9 8 7 5 4 5
5 3 12 10 12 10 6 10 6 6 8 10 10 12 16 21 27 29 14 17 20 19 15 14 11 13 15 15 13 11 9 8 7 10 10 10 11 11 11 10 8 9 7 5
7 5 8 14 13 9 12 10 9 8 12 9 7 12 21 25 26 27 15 13 9 13 18 18 16 12 12 14 10 13 9 8 10 12 12 13 13 13 13 13 10 9 8 6
12 12 11 14 18 14 9 7 8 10 8 10 12 16 23 24 26 22 16 15 12 14 21 28 19 12 10 14 12 12 13 13 13 13 13 11 11 12 13 11 9 8 8 9
12 9 10 9 11 23 6 7 7 9 9 11 13 15 25 28 26 20 17 15 16 21 26 30 23 13 13 16 16 15 16 15 16 15 15 12 11 11 12 11 9 9 10 10
12 13 13 12 17 19 21 16 13 10 10 10 11 16 18 17 30 24 21 17 19 20 29 30 15 13 15 20 19 17 20 20 19 17 15 14 15 13 11 9 7 6 6 6
14 14 16 16 17 20 19 16 15 16 14 15 15 18 17 20 33 21 24 23 21 22 23 19 8 16 21 24 25 23 26 26 27 23 22 22 21 19 16 13 12 9 9 10
16 15 18 17 18 20 21 16 17 16 15 18 16 17 18 23 27 22 26 28 25 28 26 24 25 23 20 22 25 27 31 35 41 30 27 28 27 23 21 18 17 19 18 17
19 18 18 16 17 20 20 18 17 19 18 18 18 18 21 22 25 22 22 26 32 33 35 33 27 25 25 29 29 31 37 39 47 41 35 29 37 26 23 20 19 21 23 26
18 18 19 17 19 17 15 22 17 19 20 21 21 21 24 24 23 26 25 24 26 33 40 41 39 36 35 36 37 39 39 43 43 41 40 38 47 12 23 24 30 29 29 31
18 18 20 20 19 18 17 22 19 21 20 23 22 24 26 25 24 27 27 27 28 28 32 40 45 47 47 45 44 46 46 46 49 46 41 40 31 24 23 27 31 34 37 38
21 20 20 21 22 20 21 28 21 21 20 27 25 26 28 29 25 26 33 29 30 31 33 35 38 43 48 49 49 49 51 53 52 48 46 42 38 32 32 37 38 41 43 43
23 23 22 23 25 25 34 28 22 24 31 31 29 28 28 30 30 35 23 35 33 32 33 36 38 40 41 42 46 50 53 55 53 50 46 44 43 42 43 45 48 50 52 53
26 27 24 26 27 28 31 27 29 32 32 32 32 33 32 34 36 39 42 40 41 41 41 41 39 43 47 45 46 46 46 48 50 53 54 55 56 58 58 57 58 60 62 58
26 30 30 28 32 34 32 34 34 31 31 33 34 34 37 37 39 41 43 45 46 46 47 47 48 47 47 49 46 50 52 50 50 50 50 50 49 48 47 45 44 43 44 44
33 31 32 32 30 38 37 36 36 34 33 34 36 38 40 42 43 45 48 47 49 51 51 52 53 54 54 55 51 52 55 54 55 54 52 51 50 49 47 46 45 44 44 44
32 36 34 34 34 38 39 39 37 39 39 40 42 43 44 45 46 46 49 51 52 52 53 55 56 57 59 62 61 58 60 58 58 58 57 57 55 54 52 49 45 42 40 42
35 39 39 41 40 39 35 36 39 42 41 44 47 47 47 48 49 49 49 50 53 55 58 60 59 59 60 64 66 63 64 62 61 60 59 58 57 57 56 54 50 47 45 43
Wind_Direction
243 208 226 229 264 258 262 257 275 320 303 249 290 282 316 331 349 8 39 30 23 18 18 17 350 313 278 162 256 243 238 233 219 206 208 208 223 237 233 235 243 248 246 255
209 223 238 231 254 246 241 254 268 17 302 242 281 262 247 284 314 340 343 354 12 9 7 356 3 348 306 265 256 257 222 214 215 216 216 204 213 229 262 247 247 244 247 248
225 200 254 240 257 251 256 263 262 284 284 322 281 277 237 268 285 303 323 335 356 3 358 349 344 345 336 313 270 253 240 224 247 260 258 252 232 203 228 260 263 258 249 242
243 240 242 246 252 261 258 260 257 265 274 197 298 278 235 212 289 287 293 324 331 324 341 347 336 335 333 323 310 224 223 209 205 199 271 223 213 216 239 263 270 273 263 255
255 259 239 240 257 240 246 242 250 254 250 275 285 300 297 233 319 303 288 286 307 323 334 339 339 325 326 327 296 243 211 198 175 162 138 119 130 167 197 278 294 291 283 248
246 277 261 235 246 251 247 260 274 276 254 253 251 251 293 277 291 280 271 277 285 302 329 340 335 334 325 313 315 282 236 197 183 146 109 115 108 5 301 321 322 331 322 279
296 289 285 277 41 293 318 342 314 286 272 276 274 244 240 286 292 285 259 257 270 282 291 309 329 337 324 325 306 304 280 238 185 160 105 20 1 348 327 334 327 339 351 319
304 301 297 275 235 200 270 231 214 252 238 247 251 276 272 274 281 280 266 250 252 267 271 281 316 336 336 320 322 303 294 257 229 207 224 238 297 331 333 310 321 314 339 14
260 274 289 276 282 274 210 5 257 245 259 261 262 260 294 262 282 289 267 251 243 254 264 261 287 303 327 334 310 296 291 278 242 249 257 261 280 301 309 302 283 294 309 295
292 249 298 282 340 342 287 265 266 255 281 295 254 267 253 258 285 295 268 240 234 236 239 251 269 296 307 317 310 297 289 291 275 257 258 263 277 294 296 292 274 261 264 244
258 266 277 308 315 269 281 286 292 284 243 251 256 258 254 267 270 289 279 232 237 227 229 239 249 271 295 315 300 283 276 269 261 260 264 273 277 282 287 289 276 265 264 253
264 277 274 282 273 298 294 292 248 245 270 272 265 268 275 277 283 278 263 263 250 246 244 246 229 249 279 305 297 272 275 266 263 259 256 271 279 270 271 275 273 248 248 260
269 264 285 313 303 324 276 294 292 258 266 258 245 272 265 273 271 271 258 245 238 246 250 255 212 219 267 285 291 267 274 277 272 259 251 250 255 258 265 266 271 262 247 252
258 257 263 266 235 244 279 286 281 276 269 247 243 262 287 294 281 256 250 246 247 254 262 271 229 255 263 272 282 270 258 264 267 258 243 236 241 247 254 266 265 266 268 281
277 270 263 263 265 266 271 275 273 273 267 257 240 242 252 258 267 250 240 251 251 258 270 278 240 251 254 258 262 264 265 255 251 252 242 228 225 224 232 225 237 243 258 268
275 270 269 268 267 272 276 280 275 273 271 270 262 255 255 254 275 263 241 237 242 243 256 271 248 245 246 251 258 262 257 263 219 238 231 240 233 227 232 238 244 253 262 265
281 279 275 272 265 267 276 284 271 271 273 273 269 269 265 261 268 272 268 247 234 238 245 256 256 251 247 245 258 261 262 267 273 287 285 256 232 221 231 248 257 266 271 273
280 277 275 276 274 274 274 271 273 265 267 268 268 266 267 272 268 262 259 259 254 244 241 244 250 251 248 251 256 259 264 269 277 283 286 280 273 232 235 252 258 274 282 275
281 278 278 278 277 278 275 277 263 268 265 266 262 262 264 268 268 272 268 263 258 257 254 248 246 252 255 254 255 259 264 268 272 276 279 284 291 273 275 269 270 270 272 278
278 276 276 278 278 275 254 273 282 273 273 263 266 263 261 268 273 270 270 264 258 256 255 256 254 253 254 257 258 258 261 262 263 265 266 268 275 276 271 274 275 272 272 270
273 272 273 272 276 276 271 283 281 279 263 274 277 271 266 264 255 266 251 273 269 264 259 257 258 260 257 256 258 260 260 262 267 269 269 268 270 271 271 269 268 268 268 270
277 279 274 274 269 268 275 287 274 274 279 278 278 276 273 266 264 264 265 266 267 267 265 264 259 256 258 258 261 260 259 262 264 266 266 265 264 263 263 265 265 265 267 270
270 270 272 274 273 278 277 273 279 278 277 278 279 277 275 271 268 264 262 264 264 264 264 266 265 262 261 261 256 261 263 264 262 263 264 266 266 264 266 266 266 265 267 269
277 272 272 271 271 273 280 282 281 280 281 282 280 277 275 274 272 271 270 266 263 262 260 260 262 263 264 264 262 261 261 264 267 268 268 269 270 270 268 264 265 264 265 266
275 284 283 280 278 277 283 287 288 285 288 286 283 281 280 278 276 274 272 271 269 265 262 259 259 260 261 262 263 261 262 262 263 265 268 270 270 271 272 270 268 266 263 266
275 279 282 282 283 287 290 289 290 289 288 286 287 288 288 287 284 282 279 276 272 269 267 266 264 260 258 260 261 261 262 261 262 264 266 267 269 271 272 273 271 270 270 271